STARLINK-34053, 63837

Orbit data source: Space-Track

STARLINK-34053, 63837 is a payload satellite owned by SpaceX/Seattle (US) in LEO that was launched on Wed, 07 May 2025 UTC via an FALCON 9 launch vehicle from the Air Force Eastern Test Range (AFETR). Payload-class satellites include a variety of spacecraft equipped with specific instruments for various scientific and technological missions. These include communications satellites like Starlink; space stations such as the ISS; scientific satellites like the Hubble; Earth observation satellites from companies like Planet Labs, Umbra, and HawkEye 360; GPS; miniature CubeSats for education and research; and military/defense satellites.

Loading next visibility...
Identifier
63837, 2025-093B
Orbit
LEO
Last TLE update
18 hours ago
Origin
Manufacturer
SpaceX/Seattle
Mission
Operational spacecraft
Bus & Motor
STARLINK V2MO, Unknown motor
Mass
575 kg wet, ~530 kg dry
Launch date (UTC)
2025-05-07 (1 month ago)
Launch vehicle
FALCON 9
Launch site
Air Force Eastern Test Range (AFETR)
Object type
Payload
Rocket body
Debris
Shape & HBR
Unknown
Radar Cross Section
Large (>1 m²)

Expand to show TLE details & history

TLE from 18 hours ago
0 STARLINK-34053
1 63837U 25093B   25169.57542951  .00030598  00000-0  73641-3 0  9996
2 63837  42.9999 129.9699 0001009 260.0682 100.0061 15.40716847  7503
Epoch: 2025-06-18T13:48Z
TLE epoch observation values (Epoch: 2025-06-18T13:48:37.109Z)
Latitude
-0°
Longitude
15.75978°
Altitude
443.886 km
Speed
7.648 km/s
True Right ascension
08h 39m 52s
True Declination
0° 00' 00"
Sunlit
Object was in daylight at epoch
Visualization orbit readout
Latitude
43.1588°
Longitude
101.77227°
Altitude
447.684 km
Speed
7.649 km/s
Apparent Right ascension
10h 20m 29s
Apparent Declination
7° 01' 40"
Sunlit
Object is in daylight
Visualization observer readout
Local Sidereal Time
18:09:27
Azimuth
293.592° NW
Elevation
-15.661°
Doppler factor
1
Orbital elements
Apogee altitude
446.637 km
Perigee altitude
445.26 km
Semi-major axis
6,824.086 km
Eccentricity
0.0001
Inclination
42.9999°
RAAN
129.9699°
Arg. of periapsis
260.0682°
True anomaly
Unknown
Mean anomaly
100.0061°
Eccentric anomaly
Unknown
Mean motion
3.85014 °/min
Orbital period
93.5 mins
BSTAR
0.00073641
Loading maneuver chart data...
Loading SW <> Apogee altitude chart data...
Loading historical data...
Loading historical data...
Loading historical data...
Loading historical data...
Loading historical data...
Loading historical data...
Loading historical data...

STARLINK-34053 Visibility forecast

Observer location: undefined°, undefined°

Span
Click to sort rows by Start time (UTC) header in descending order
Start Az.
Max El. time (UTC)
Max El. Az.
Max El.
End time (UTC)
End Az.
4 mins2025-06-20 00:15:50.146Z194.949° SSW2025-06-20 00:16:50.146Z166.717° S27.976°2025-06-20 00:19:50.146Z89.384° E
5 mins2025-06-20 01:52:50.146Z265.806° W2025-06-20 01:54:50.146Z304.876° NW41.29°2025-06-20 01:57:50.146Z68.152° E
5 mins2025-06-20 03:31:50.146Z299.942° NW2025-06-20 03:33:50.146Z26.464° NE36.778°2025-06-20 03:36:50.146Z81.312° E
5 mins2025-06-20 05:09:50.146Z281.957° WNW2025-06-20 05:11:50.146Z175.407° S43.446°2025-06-20 05:14:50.146Z117.569° SE
|